Location: downtown San Diego
(32.7310°N, 117.1990°W)
Time: 16:24:06
(UTC-07:00)

Resurs 01 Rocket - Pass Details

Date: 12 July 2018
Orbit: 635 x 643 km, 98.1° (Epoch: 16 July)

Event Time Altitude Azimuth Distance (km) Brightness Sun altitude
Exits shadow 20:56:27 - 168° (SSE) 2,272 4.0 -11.2°
Reaches altitude 10° 20:57:03 10° 168° (SSE) 2,026 3.8 -11.3°
Maximum altitude 21:01:28 86° 258° (WSW) 648 1.7 -12.1°
Drops below altitude 10° 21:05:56 10° 347° (NNW) 2,042 5.0 -12.8°
Sets 21:08:09 0° 348° (NNW) 2,956 5.9 -13.2°
